User: anonymous   Login
Location: Elstree
(51.6403°N, 0.2969°W)
Time: 12:37:29
(UTC+00:00)
Language:

SPOT 1/Viking Rocket - Orbit

View from above orbital plane
View from above orbital plane
View from above satellite
View from above satellite

Ground track
Ground track

The orbit data is extracted from the following two-line orbital elements,

1 16615U 86019C   21137.77614021  .00000023  00000-0  24428-4 0  9994
2 16615  98.4309 200.6061 0012676 138.1091 331.0796 14.31843354844128
Epoch (UTC): 17 May 2021 18:37:38
Eccentricity: 0.0012676
inclination: 98.4309°
perigee height: 776 km
apogee height: 794 km
right ascension of ascending node: 200.6061°
argument of perigee: 138.1091°
revolutions per day: 14.31843354
mean anomaly at epoch: 331.0796°
orbit number at epoch: 84412

The dashed part of the orbit path shows where the satellite is in the earth's shadow,  

DLR